Regional Weather Roundup
Issued by NWS

Home | Current Version | Previous Version | Graphics & Text | Print | Product List | Glossary On
Versions: 1 2 3 4 5 6 7 8 9 10 11 12 13 14 15 16 17 18 19 20 21 22 23 24 25 26 27 28 29 30 31 32 33 34 35 36 37 38 39 40 41 42 43 44 45 46 47 48 49 50
203
ASUS43 KLMK 201910
RWRKY
KENTUCKY REGIONAL WEATHER ROUNDUP
NATIONAL WEATHER SERVICE LOUISVILLE KY
200 PM EST FRI JAN 20 2017

NOTE "FAIR" INDICATES FEW OR NO CLOUDS BELOW 12,000 FEET
WITH NO SIGNIFICANT WEATHER AND/OR OBSTRUCTIONS TO VISIBILITY.

KYZ001>023-026-027-061>063-070>075-202000-
WESTERN AND SOUTH CENTRAL KENTUCKY

CITY           SKY/WX    TMP DP  RH WIND       PRES   REMARKS
PADUCAH        CLOUDY    61  53  75 S9G20     29.65F
HENDERSON      CLOUDY    59  52  77 S8        29.67F
OWENSBORO      CLOUDY    60  53  77 SW12      29.70F
HOPKINSVILLE   PTSUNNY   59  55  88 S9        29.71F
BOWLING GREEN  CLOUDY    63  53  70 SW8       29.74F
GLASGOW        CLOUDY    61  51  70 SW9       29.75F
$$

KYZ024-025-028>034-038-045-046-053-202000-
NORTH CENTRAL KENTUCKY

CITY           SKY/WX    TMP DP  RH WIND       PRES   REMARKS
LOUISVILLE/SDF PTSUNNY   61  49  64 SW13      29.71F
LOUISVILLE/LOU CLOUDY    61  50  67 SW10G18   29.72F
FORT KNOX      CLOUDY    59  52  77 S10       29.71S
$$

KYZ035>037-039>044-047>052-055>060-089>105-202000-
NORTHEAST KENTUCKY

CITY           SKY/WX    TMP DP  RH WIND       PRES   REMARKS
LEXINGTON      PTSUNNY   61  49  64 SW18G29   29.74F
COVINGTON      CLOUDY    59  51  75 SW9       29.70S
FRANKFORT      PTSUNNY   61  49  64 SW15G23   29.72F
$$

KYZ054-064>069-076>088-106>120-202000-
SOUTHEAST KENTUCKY

CITY           SKY/WX    TMP DP  RH WIND       PRES   REMARKS
JACKSON        CLOUDY    62  51  67 MISG      29.76F
LONDON         PTSUNNY   64  50  60 SW10      29.77F
SOMERSET       PTSUNNY   63  52  67 W15G24    29.78F
MIDDLESBORO    CLOUDY    63  54  72 S8        29.79F
MONTICELLO     MOCLDY    64  51  62 SW18      29.79F
$$





USA.gov is the U.S. government's official web portal to all federal, state and local government web resources and services.